Location: Chicoutimi
(48.4330°N, 71.0670°W)
Time: 23:12:46
(UTC-05:00)

ISS - Visible Passes

Search period start: 27 January 2015 00:00
Search period end: 06 February 2015 00:00
Orbit: 402 x 410 km, 51.6° (Epoch: 27 January)

Date Brightness Start Highest point End Pass type
(mag) Time Alt. Az. Time Alt. Az. Time Alt. Az.
27 Jan -0.9 05:38:41 12° SSW 05:38:41 12° SSW 05:39:27 10° SSW visible
04 Feb -0.8 18:36:13 10° S 18:36:40 12° SSE 18:36:40 12° SSE visible
05 Feb -0.7 19:19:05 10° SW 19:19:54 16° SW 19:19:54 16° SW visible
